| time (UTC) | temp F | wind direction | speed MPH | gust MPH | rain 1hr in | rain 24hr in | rain mn in | humidity % | barometer mb |
| 20260503221554 | 83 | 360 | 7.0 | 13.0 | 0.00 | 0.00 | 0.00 | 23 | 1011.1 |
| 20260503221035 | 82 | 360 | 5.0 | 13.0 | 0.00 | 0.00 | 0.00 | 24 | 1011.2 |
| 20260503220535 | 83 | 360 | 5.0 | 12.0 | 0.00 | 0.00 | 0.00 | 23 | 1011.3 |
| 20260503220052 | 83 | 360 | 5.0 | 12.0 | 0.00 | 0.00 | 0.00 | 23 | 1011.4 |
| 20260503215535 | 82 | 360 | 3.0 | 10.0 | 0.00 | 0.00 | 0.00 | 24 | 1011.4 |
| 20260503215035 | 82 | 360 | 4.0 | 11.0 | 0.00 | 0.00 | 0.00 | 23 | 1011.5 |
| 20260503214550 | 82 | 360 | 6.0 | 12.0 | 0.00 | 0.00 | 0.00 | 23 | 1011.6 |
| 20260503214040 | 82 | 360 | 5.0 | 13.0 | 0.00 | 0.00 | 0.00 | 24 | 1011.6 |
| 20260503213536 | 81 | 360 | 5.0 | 13.0 | 0.00 | 0.00 | 0.00 | 24 | 1011.7 |
| 20260503213046 | 81 | 5 | 2.0 | 9.0 | 0.00 | 0.00 | 0.00 | 24 | 1011.7 |
| 20260503212536 | 81 | 5 | 3.0 | 9.0 | 0.00 | 0.00 | 0.00 | 24 | 1011.9 |
| 20260503212035 | 81 | 5 | 4.0 | 9.0 | 0.00 | 0.00 | 0.00 | 24 | 1011.9 |
| 20260503211548 | 81 | 5 | 4.0 | 15.0 | 0.00 | 0.00 | 0.00 | 24 | 1012.0 |
| 20260503211035 | 81 | 5 | 5.0 | 15.0 | 0.00 | 0.00 | 0.00 | 24 | 1012.2 |
| 20260503210535 | 82 | 5 | 3.0 | 12.0 | 0.00 | 0.00 | 0.00 | 24 | 1012.2 |
| 20260503210045 | 81 | 5 | 5.0 | 12.0 | 0.00 | 0.00 | 0.00 | 24 | 1012.2 |
| 20260503205536 | 81 | 5 | 8.0 | 12.0 | 0.00 | 0.00 | 0.00 | 24 | 1012.4 |
| 20260503205035 | 81 | 15 | 6.0 | 12.0 | 0.00 | 0.00 | 0.00 | 24 | 1012.5 |
| 20260503204546 | 81 | 15 | 4.0 | 10.0 | 0.00 | 0.00 | 0.00 | 25 | 1012.5 |
| 20260503204034 | 81 | 15 | 5.0 | 10.0 | 0.00 | 0.00 | 0.00 | 25 | 1012.5 |
| 20260503203534 | 81 | 15 | 4.0 | 8.0 | 0.00 | 0.00 | 0.00 | 24 | 1012.6 |
| 20260503203103 | 81 | 15 | 2.0 | 11.0 | 0.00 | 0.00 | 0.00 | 24 | 1012.7 |
| 20260503202537 | 81 | 15 | 2.0 | 11.0 | 0.00 | 0.00 | 0.00 | 25 | 1012.7 |
| 20260503202036 | 80 | 15 | 2.0 | 10.0 | 0.00 | 0.00 | 0.00 | 27 | 1012.7 |
| 20260503201546 | 79 | 15 | 6.0 | 10.0 | 0.00 | 0.00 | 0.00 | 25 | 1012.8 |
| 20260503201034 | 80 | 15 | 8.0 | 13.0 | 0.00 | 0.00 | 0.00 | 24 | 1012.8 |
| 20260503200546 | 80 | 15 | 5.0 | 13.0 | 0.00 | 0.00 | 0.00 | 25 | 1012.9 |
| 20260503200047 | 80 | 15 | 7.0 | 13.0 | 0.00 | 0.00 | 0.00 | 24 | 1012.9 |
| 20260503195535 | 79 | 15 | 7.0 | 11.0 | 0.00 | 0.00 | 0.00 | 23 | 1013.0 |
| 20260503195035 | 79 | 15 | 7.0 | 11.0 | 0.00 | 0.00 | 0.00 | 23 | 1013.0 |
| 20260503194636 | 80 | 15 | 6.0 | 13.0 | 0.00 | 0.00 | 0.00 | 22 | 1013.0 |
| 20260503194035 | 79 | 15 | 5.0 | 13.0 | 0.00 | 0.00 | 0.00 | 23 | 1013.2 |
| 20260503193534 | 79 | 15 | 5.0 | 12.0 | 0.00 | 0.00 | 0.00 | 23 | 1013.3 |
| 20260503193049 | 79 | 27 | 5.0 | 12.0 | 0.00 | 0.00 | 0.00 | 23 | 1013.3 |
| 20260503192531 | 79 | 27 | 5.0 | 12.0 | 0.00 | 0.00 | 0.00 | 22 | 1013.4 |
| 20260503192034 | 79 | 27 | 4.0 | 12.0 | 0.00 | 0.00 | 0.00 | 25 | 1013.4 |
| 20260503191549 | 79 | 27 | 6.0 | 11.0 | 0.00 | 0.00 | 0.00 | 23 | 1013.4 |
| 20260503191034 | 78 | 28 | 5.0 | 11.0 | 0.00 | 0.00 | 0.00 | 24 | 1013.5 |
| 20260503190535 | 78 | 28 | 5.0 | 11.0 | 0.00 | 0.00 | 0.00 | 26 | 1013.6 |
| 20260503190044 | 78 | 28 | 4.0 | 10.0 | 0.00 | 0.00 | 0.00 | 25 | 1013.7 |
| 20260503185535 | 78 | 28 | 6.0 | 11.0 | 0.00 | 0.00 | 0.00 | 26 | 1013.6 |
| 20260503185034 | 77 | 0 | 4.0 | 11.0 | 0.00 | 0.00 | 0.00 | 26 | 1013.7 |
| 20260503184545 | 77 | 28 | 6.0 | 11.0 | 0.00 | 0.00 | 0.00 | 26 | 1013.9 |
| 20260503184035 | 77 | 28 | 5.0 | 15.0 | 0.00 | 0.00 | 0.00 | 27 | 1014.0 |
| 20260503183535 | 77 | 28 | 6.0 | 15.0 | 0.00 | 0.00 | 0.00 | 26 | 1014.0 |
| 20260503183049 | 77 | 27 | 10.0 | 15.0 | 0.00 | 0.00 | 0.00 | 26 | 1014.1 |
| 20260503182534 | 77 | 28 | 10.0 | 15.0 | 0.00 | 0.00 | 0.00 | 26 | 1014.1 |
| 20260503182036 | 77 | 27 | 10.0 | 15.0 | 0.00 | 0.00 | 0.00 | 26 | 1014.2 |
| 20260503181546 | 77 | 28 | 9.0 | 13.0 | 0.00 | 0.00 | 0.00 | 28 | 1014.1 |
| 20260503181034 | 76 | 28 | 8.0 | 15.0 | 0.00 | 0.00 | 0.00 | 27 | 1014.2 |
| 20260503180534 | 76 | 29 | 8.0 | 15.0 | 0.00 | 0.00 | 0.00 | 28 | 1014.1 |
| 20260503180053 | 76 | 28 | 8.0 | 13.0 | 0.00 | 0.00 | 0.00 | 28 | 1014.2 |
| 20260503175534 | 76 | 28 | 6.0 | 13.0 | 0.00 | 0.00 | 0.00 | 31 | 1014.2 |
| 20260503175035 | 76 | 28 | 8.0 | 13.0 | 0.00 | 0.00 | 0.00 | 31 | 1014.2 |
| 20260503174546 | 75 | 30 | 8.0 | 13.0 | 0.00 | 0.00 | 0.00 | 33 | 1014.2 |
| 20260503174036 | 75 | 25 | 8.0 | 12.0 | 0.00 | 0.00 | 0.00 | 32 | 1014.2 |
| 20260503173535 | 75 | 25 | 8.0 | 13.0 | 0.00 | 0.00 | 0.00 | 31 | 1014.1 |
| 20260503173049 | 75 | 25 | 9.0 | 13.0 | 0.00 | 0.00 | 0.00 | 33 | 1014.2 |
| 20260503172535 | 75 | 26 | 9.0 | 13.0 | 0.00 | 0.00 | 0.00 | 34 | 1014.2 |
| 20260503172034 | 75 | 26 | 5.0 | 13.0 | 0.00 | 0.00 | 0.00 | 34 | 1014.3 |
| 20260503171539 | 75 | 26 | 4.0 | 10.0 | 0.00 | 0.00 | 0.00 | 34 | 1014.3 |
| 20260503171035 | 74 | 26 | 6.0 | 9.0 | 0.00 | 0.00 | 0.00 | 37 | 1014.2 |
| 20260503170535 | 73 | 26 | 4.0 | 10.0 | 0.00 | 0.00 | 0.00 | 40 | 1014.2 |
| 20260503150536 | 62 | 26 | 6.0 | 10.0 | 0.00 | 0.00 | 0.00 | 58 | 1014.4 |
| 20260503131034 | 48 | 26 | 0.0 | 3.0 | 0.00 | 0.00 | 0.00 | 82 | 1014.3 |
| 20260503130534 | 48 | 0 | 1.0 | 3.0 | 0.00 | 0.00 | 0.00 | 81 | 1014.4 |
| 20260503110535 | 52 | 26 | 1.0 | 2.0 | 0.00 | 0.00 | 0.00 | 71 | 1014.0 |
| 20260503100104 | 55 | 26 | 1.0 | 3.0 | 0.00 | 0.00 | 0.00 | 66 | 1013.7 |
| 20260503081550 | 55 | 26 | 2.0 | 6.0 | 0.00 | 0.00 | 0.00 | 64 | 1013.7 |
| 20260503081035 | 55 | 26 | 4.0 | 6.0 | 0.00 | 0.00 | 0.00 | 63 | 1013.9 |
| 20260503080535 | 56 | 26 | 0.0 | 3.0 | 0.00 | 0.00 | 0.00 | 62 | 1013.8 |
| 20260503072535 | 56 | 26 | 0.0 | 3.0 | 0.00 | 0.00 | 0.00 | 60 | 1013.7 |
| 20260503072037 | 56 | 26 | 0.0 | 2.0 | 0.00 | 0.00 | 0.00 | 60 | 1013.7 |
| 20260503071545 | 57 | 0 | 0.0 | 3.0 | 0.00 | 0.00 | 0.00 | 58 | 1013.6 |
| 20260503071035 | 57 | 26 | 1.0 | 3.0 | 0.00 | 0.00 | 0.00 | 59 | 1013.7 |
| 20260503070535 | 57 | 26 | 1.0 | 2.0 | 0.00 | 0.00 | 0.00 | 58 | 1013.6 |
| 20260503060108 | 59 | 0 | 0.0 | 3.0 | 0.00 | 0.00 | 0.00 | 57 | 1013.3 |
| 20260503055035 | 59 | 26 | 1.0 | 3.0 | 0.00 | 0.00 | 0.00 | 56 | 1013.3 |
| 20260503054600 | 59 | 0 | 0.0 | 0.0 | 0.00 | 0.00 | 0.00 | 56 | 1013.5 |
| 20260503054037 | 60 | 0 | 0.0 | 0.0 | 0.00 | 0.00 | 0.00 | 56 | 1013.4 |
| 20260503053535 | 60 | 0 | 0.0 | 0.0 | 0.00 | 0.00 | 0.00 | 56 | 1013.5 |
| 20260503053044 | 60 | 0 | 0.0 | 2.0 | 0.00 | 0.00 | 0.00 | 55 | 1013.4 |
| 20260503052536 | 60 | 0 | 0.0 | 2.0 | 0.00 | 0.00 | 0.00 | 55 | 1013.4 |
| 20260503052032 | 60 | 26 | 1.0 | 2.0 | 0.00 | 0.00 | 0.00 | 55 | 1013.2 |
| 20260503051542 | 60 | 26 | 0.0 | 3.0 | 0.00 | 0.00 | 0.00 | 55 | 1013.3 |
| 20260503051034 | 60 | 26 | 1.0 | 3.0 | 0.00 | 0.00 | 0.00 | 55 | 1013.4 |
| 20260503050532 | 61 | 26 | 1.0 | 2.0 | 0.00 | 0.00 | 0.00 | 54 | 1013.4 |
| 20260503050043 | 61 | 26 | 1.0 | 3.0 | 0.00 | 0.00 | 0.00 | 53 | 1013.3 |
| 20260503045532 | 62 | 26 | 0.0 | 3.0 | 0.00 | 0.00 | 0.00 | 52 | 1013.3 |
| 20260503045036 | 63 | 26 | 0.0 | 2.0 | 0.00 | 0.00 | 0.00 | 50 | 1013.2 |
| 20260503044549 | 64 | 0 | 0.0 | 4.0 | 0.00 | 0.00 | 0.00 | 49 | 1013.2 |
| 20260503044037 | 65 | 0 | 1.0 | 4.0 | 0.00 | 0.00 | 0.00 | 47 | 1013.2 |
| 20260503043539 | 65 | 26 | 1.0 | 4.0 | 0.00 | 0.00 | 0.00 | 47 | 1013.2 |
| 20260503043049 | 65 | 26 | 2.0 | 5.0 | 0.00 | 0.00 | 0.00 | 46 | 1013.2 |
| 20260503042538 | 66 | 26 | 2.0 | 5.0 | 0.00 | 0.00 | 0.00 | 46 | 1013.1 |
| 20260503042035 | 66 | 26 | 3.0 | 5.0 | 0.00 | 0.00 | 0.00 | 45 | 1013.1 |
| 20260503041545 | 66 | 26 | 2.0 | 4.0 | 0.00 | 0.00 | 0.00 | 45 | 1013.1 |
| 20260503041036 | 66 | 26 | 1.0 | 4.0 | 0.00 | 0.00 | 0.00 | 46 | 1013.0 |
| 20260503040534 | 66 | 26 | 1.0 | 4.0 | 0.00 | 0.00 | 0.00 | 46 | 1012.9 |
| 20260503040042 | 66 | 0 | 1.0 | 5.0 | 0.00 | 0.00 | 0.00 | 46 | 1012.8 |
| 20260503035535 | 67 | 26 | 2.0 | 5.0 | 0.00 | 0.00 | 0.00 | 45 | 1012.9 |
| 20260503035035 | 67 | 26 | 3.0 | 5.0 | 0.00 | 0.00 | 0.00 | 45 | 1012.7 |
| 20260503034539 | 67 | 26 | 3.0 | 5.0 | 0.00 | 0.00 | 0.00 | 45 | 1012.8 |
| 20260503034036 | 67 | 26 | 2.0 | 4.0 | 0.00 | 0.00 | 0.00 | 45 | 1012.5 |
| 20260503033538 | 67 | 26 | 2.0 | 4.0 | 0.00 | 0.00 | 0.00 | 44 | 1012.6 |
| 20260503033046 | 67 | 26 | 2.0 | 4.0 | 0.00 | 0.00 | 0.00 | 45 | 1012.5 |
| 20260503032535 | 68 | 26 | 1.0 | 4.0 | 0.00 | 0.00 | 0.00 | 45 | 1012.4 |
| 20260503032035 | 68 | 26 | 2.0 | 4.0 | 0.00 | 0.00 | 0.00 | 44 | 1012.3 |
| 20260503031545 | 68 | 0 | 1.0 | 4.0 | 0.00 | 0.00 | 0.00 | 44 | 1012.2 |
| 20260503031035 | 69 | 26 | 1.0 | 4.0 | 0.00 | 0.00 | 0.00 | 43 | 1012.2 |
| 20260503030535 | 69 | 26 | 2.0 | 5.0 | 0.00 | 0.00 | 0.00 | 43 | 1012.1 |
| 20260503030048 | 70 | 26 | 1.0 | 5.0 | 0.00 | 0.00 | 0.00 | 42 | 1012.1 |
| 20260503025535 | 70 | 26 | 2.0 | 5.0 | 0.00 | 0.00 | 0.00 | 42 | 1012.0 |
| 20260503025035 | 71 | 26 | 3.0 | 5.0 | 0.00 | 0.00 | 0.00 | 41 | 1012.0 |
| 20260503024543 | 71 | 26 | 3.0 | 6.0 | 0.00 | 0.00 | 0.00 | 40 | 1011.9 |
| 20260503024035 | 72 | 26 | 3.0 | 6.0 | 0.00 | 0.00 | 0.00 | 39 | 1012.0 |
| 20260503023536 | 73 | 26 | 3.0 | 5.0 | 0.00 | 0.00 | 0.00 | 38 | 1012.0 |
| 20260503023042 | 74 | 26 | 3.0 | 9.0 | 0.00 | 0.00 | 0.00 | 37 | 1012.0 |
| 20260503022537 | 75 | 26 | 3.0 | 10.0 | 0.00 | 0.00 | 0.00 | 35 | 1012.0 |
| 20260503022044 | 76 | 26 | 6.0 | 10.0 | 0.00 | 0.00 | 0.00 | 31 | 1012.1 |
| 20260503021542 | 77 | 26 | 5.0 | 10.0 | 0.00 | 0.00 | 0.00 | 31 | 1012.0 |
| 20260503021036 | 77 | 26 | 6.0 | 11.0 | 0.00 | 0.00 | 0.00 | 31 | 1012.0 |
| 20260503020537 | 78 | 26 | 7.0 | 11.0 | 0.00 | 0.00 | 0.00 | 30 | 1012.0 |
| 20260503020046 | 78 | 26 | 6.0 | 11.0 | 0.00 | 0.00 | 0.00 | 30 | 1012.0 |
| 20260503015536 | 79 | 26 | 6.0 | 13.0 | 0.00 | 0.00 | 0.00 | 29 | 1012.0 |
| 20260503015035 | 80 | 26 | 10.0 | 13.0 | 0.00 | 0.00 | 0.00 | 28 | 1012.0 |
| 20260503014544 | 80 | 26 | 10.0 | 13.0 | 0.00 | 0.00 | 0.00 | 27 | 1011.9 |
| 20260503014035 | 80 | 26 | 7.0 | 14.0 | 0.00 | 0.00 | 0.00 | 27 | 1011.9 |
| 20260503013536 | 81 | 26 | 10.0 | 16.0 | 0.00 | 0.00 | 0.00 | 26 | 1011.9 |
| 20260503013043 | 81 | 26 | 9.0 | 16.0 | 0.00 | 0.00 | 0.00 | 25 | 1012.0 |
| 20260503012535 | 81 | 26 | 11.0 | 16.0 | 0.00 | 0.00 | 0.00 | 25 | 1012.0 |
| 20260503012035 | 82 | 26 | 12.0 | 16.0 | 0.00 | 0.00 | 0.00 | 24 | 1012.1 |
| 20260503011539 | 82 | 27 | 9.0 | 16.0 | 0.00 | 0.00 | 0.00 | 25 | 1012.1 |
| 20260503011035 | 82 | 26 | 11.0 | 16.0 | 0.00 | 0.00 | 0.00 | 25 | 1012.1 |
| 20260503010535 | 82 | 26 | 11.0 | 16.0 | 0.00 | 0.00 | 0.00 | 24 | 1012.1 |
| 20260503010041 | 82 | 30 | 9.0 | 15.0 | 0.00 | 0.00 | 0.00 | 24 | 1012.1 |
| 20260503005536 | 82 | 32 | 9.0 | 15.0 | 0.00 | 0.00 | 0.00 | 25 | 1012.1 |
| 20260503005036 | 82 | 30 | 11.0 | 15.0 | 0.00 | 0.00 | 0.00 | 24 | 1012.0 |
| 20260503004545 | 82 | 30 | 9.0 | 16.0 | 0.00 | 0.00 | 0.00 | 24 | 1012.1 |
| 20260503004035 | 82 | 31 | 11.0 | 16.0 | 0.00 | 0.00 | 0.00 | 24 | 1012.1 |
| 20260503003535 | 82 | 33 | 11.0 | 17.0 | 0.00 | 0.00 | 0.00 | 24 | 1012.2 |
| 20260503003059 | 83 | 27 | 12.0 | 22.0 | 0.00 | 0.00 | 0.00 | 23 | 1012.2 |
| 20260503002535 | 82 | 28 | 11.0 | 22.0 | 0.00 | 0.00 | 0.00 | 22 | 1012.1 |
| 20260503002035 | 83 | 28 | 12.0 | 22.0 | 0.00 | 0.00 | 0.00 | 22 | 1012.2 |
| 20260503001547 | 83 | 28 | 9.0 | 18.0 | 0.00 | 0.00 | 0.00 | 23 | 1012.2 |
| 20260503001035 | 83 | 30 | 12.0 | 19.0 | 0.00 | 0.00 | 0.00 | 22 | 1012.2 |
| 20260503000536 | 83 | 20 | 9.0 | 19.0 | 0.00 | 0.00 | 0.00 | 23 | 1012.2 |
| 20260503000049 | 83 | 34 | 10.0 | 15.0 | 0.00 | 0.00 | 0.00 | 23 | 1012.1 |
| 20260502235535 | 83 | 26 | 8.0 | 15.0 | 0.00 | 0.00 | 0.00 | 22 | 1012.2 |
| 20260502235035 | 83 | 26 | 8.0 | 17.0 | 0.00 | 0.00 | 0.00 | 23 | 1012.3 |
| 20260502234554 | 83 | 26 | 11.0 | 17.0 | 0.00 | 0.00 | 0.00 | 22 | 1012.3 |
| 20260502234035 | 83 | 19 | 6.0 | 18.0 | 0.00 | 0.00 | 0.00 | 23 | 1012.3 |
| 20260502233536 | 83 | 19 | 12.0 | 18.0 | 0.00 | 0.00 | 0.00 | 21 | 1012.3 |
| 20260502233044 | 83 | 5 | 11.0 | 20.0 | 0.00 | 0.00 | 0.00 | 21 | 1012.4 |
| 20260502232538 | 83 | 15 | 12.0 | 20.0 | 0.00 | 0.00 | 0.00 | 21 | 1012.3 |
| 20260502232035 | 83 | 32 | 14.0 | 20.0 | 0.00 | 0.00 | 0.00 | 21 | 1012.5 |
| 20260502231555 | 83 | 9 | 14.0 | 20.0 | 0.00 | 0.00 | 0.00 | 20 | 1012.5 |
| 20260502231037 | 83 | 17 | 10.0 | 18.0 | 0.00 | 0.00 | 0.00 | 22 | 1012.5 |
| 20260502230535 | 84 | 32 | 11.0 | 18.0 | 0.00 | 0.00 | 0.00 | 21 | 1012.6 |
| 20260502230052 | 83 | 38 | 7.0 | 18.0 | 0.00 | 0.00 | 0.00 | 23 | 1012.7 |
| 20260502225535 | 83 | 36 | 11.0 | 18.0 | 0.00 | 0.00 | 0.00 | 23 | 1012.7 |
| 20260502225035 | 83 | 30 | 12.0 | 18.0 | 0.00 | 0.00 | 0.00 | 21 | 1012.9 |
| 20260502224549 | 83 | 32 | 9.0 | 16.0 | 0.00 | 0.00 | 0.00 | 21 | 1012.9 |
| 20260502224036 | 83 | 32 | 8.0 | 16.0 | 0.00 | 0.00 | 0.00 | 23 | 1012.8 |
| 20260502223535 | 83 | 27 | 11.0 | 19.0 | 0.00 | 0.00 | 0.00 | 20 | 1013.0 |
| 20260502223046 | 83 | 35 | 10.0 | 19.0 | 0.00 | 0.00 | 0.00 | 22 | 1012.9 |
| 20260502222537 | 83 | 42 | 9.0 | 17.0 | 0.00 | 0.00 | 0.00 | 24 | 1013.0 |
| 20260502222034 | 83 | 42 | 11.0 | 17.0 | 0.00 | 0.00 | 0.00 | 24 | 1013.1 |